Year,Month,Day,Hour,Minute,Value (Times are PST for temperature in C)
2021,08,15,00,00,15.30
2021,08,15,00,01,15.30
2021,08,15,00,02,15.30
2021,08,15,00,03,15.30
2021,08,15,00,04,15.30
2021,08,15,00,05,15.30
2021,08,15,00,06,15.30
2021,08,15,00,07,15.30
2021,08,15,00,08,15.30
2021,08,15,00,09,15.20
2021,08,15,00,10,15.20
2021,08,15,00,11,15.20
2021,08,15,00,12,15.20
2021,08,15,00,13,15.20
2021,08,15,00,14,15.30
2021,08,15,00,15,15.30
2021,08,15,00,16,15.30
2021,08,15,00,17,15.30
2021,08,15,00,18,15.30
2021,08,15,00,19,15.30
2021,08,15,00,20,15.30
2021,08,15,00,21,15.20
2021,08,15,00,22,15.20
2021,08,15,00,23,15.20
2021,08,15,00,24,15.20
2021,08,15,00,25,15.20
2021,08,15,00,26,15.20
2021,08,15,00,27,15.20
2021,08,15,00,28,15.20
2021,08,15,00,29,15.20
2021,08,15,00,30,15.20
2021,08,15,00,31,15.20
2021,08,15,00,32,15.30
2021,08,15,00,33,15.30
2021,08,15,00,34,15.30
2021,08,15,00,35,15.20
2021,08,15,00,36,15.20
2021,08,15,00,37,15.20
2021,08,15,00,38,15.20
2021,08,15,00,39,15.20
2021,08,15,00,40,15.20
2021,08,15,00,41,15.20
2021,08,15,00,42,15.20
2021,08,15,00,43,15.20
2021,08,15,00,44,15.20
2021,08,15,00,45,15.20
2021,08,15,00,46,15.20
2021,08,15,00,47,15.20
2021,08,15,00,48,15.20
2021,08,15,00,49,15.20
2021,08,15,00,50,15.20
2021,08,15,00,51,15.20
2021,08,15,00,52,15.10
2021,08,15,00,53,15.10
2021,08,15,00,54,15.10
2021,08,15,00,55,15.00
2021,08,15,00,56,15.00
2021,08,15,00,57,15.00
2021,08,15,00,58,14.90
2021,08,15,00,59,14.90
2021,08,15,01,00,14.90
2021,08,15,01,01,14.90
2021,08,15,01,02,14.90
2021,08,15,01,03,14.80
2021,08,15,01,04,14.80
2021,08,15,01,05,14.80
2021,08,15,01,06,14.80
2021,08,15,01,07,14.80
2021,08,15,01,08,14.80
2021,08,15,01,09,14.70
2021,08,15,01,10,14.70
2021,08,15,01,11,14.70
2021,08,15,01,12,14.70
2021,08,15,01,13,14.70
2021,08,15,01,14,14.70
2021,08,15,01,15,14.60
2021,08,15,01,16,14.60
2021,08,15,01,17,14.60
2021,08,15,01,18,14.50
2021,08,15,01,19,14.50
2021,08,15,01,20,14.40
2021,08,15,01,21,14.40
2021,08,15,01,22,14.30
2021,08,15,01,23,14.30
2021,08,15,01,24,14.30
2021,08,15,01,25,14.30
2021,08,15,01,26,14.30
2021,08,15,01,27,14.30
2021,08,15,01,28,14.30
2021,08,15,01,29,14.30
2021,08,15,01,30,14.30
2021,08,15,01,31,14.30
2021,08,15,01,32,14.20
2021,08,15,01,33,14.20
2021,08,15,01,34,14.20
2021,08,15,01,35,14.20
2021,08,15,01,36,14.20
2021,08,15,01,37,14.20
2021,08,15,01,38,14.20
2021,08,15,01,39,14.20
2021,08,15,01,40,14.20
2021,08,15,01,41,14.20
2021,08,15,01,42,14.20
2021,08,15,01,43,14.10
2021,08,15,01,44,14.10
2021,08,15,01,45,14.10
2021,08,15,01,46,14.10
2021,08,15,01,47,14.10
2021,08,15,01,48,14.10
2021,08,15,01,49,14.10
2021,08,15,01,50,14.10
2021,08,15,01,51,14.10
2021,08,15,01,52,14.10
2021,08,15,01,53,14.00
2021,08,15,01,54,14.00
2021,08,15,01,55,14.00
2021,08,15,01,56,14.00
2021,08,15,01,57,14.00
2021,08,15,01,58,14.00
2021,08,15,01,59,14.00
2021,08,15,02,00,13.90
2021,08,15,02,01,13.90
2021,08,15,02,02,13.90
2021,08,15,02,03,13.90
2021,08,15,02,04,13.90
2021,08,15,02,05,14.00
2021,08,15,02,06,14.00
2021,08,15,02,07,14.00
2021,08,15,02,08,14.00
2021,08,15,02,09,14.10
2021,08,15,02,10,14.10
2021,08,15,02,11,14.10
2021,08,15,02,12,14.10
2021,08,15,02,13,14.10
2021,08,15,02,14,14.10
2021,08,15,02,15,14.20
2021,08,15,02,16,14.20
2021,08,15,02,17,14.20
2021,08,15,02,18,14.30
2021,08,15,02,19,14.30
2021,08,15,02,20,14.30
2021,08,15,02,21,14.40
2021,08,15,02,22,14.40
2021,08,15,02,23,14.40
2021,08,15,02,24,14.50
2021,08,15,02,25,14.50
2021,08,15,02,26,14.60
2021,08,15,02,27,14.60
2021,08,15,02,28,14.60
2021,08,15,02,29,14.60
2021,08,15,02,30,14.60
2021,08,15,02,31,14.60
2021,08,15,02,32,14.60
2021,08,15,02,33,14.70
2021,08,15,02,34,14.60
2021,08,15,02,35,14.60
2021,08,15,02,36,14.50
2021,08,15,02,37,14.50
2021,08,15,02,38,14.40
2021,08,15,02,39,14.40
2021,08,15,02,40,14.40
2021,08,15,02,41,14.30
2021,08,15,02,42,14.30
2021,08,15,02,43,14.30
2021,08,15,02,44,14.30
2021,08,15,02,45,14.30
2021,08,15,02,46,14.30
2021,08,15,02,47,14.30
2021,08,15,02,48,14.30
2021,08,15,02,49,14.30
2021,08,15,02,50,14.30
2021,08,15,02,51,14.30
2021,08,15,02,52,14.30
2021,08,15,02,53,14.20
2021,08,15,02,54,14.20
2021,08,15,02,55,14.20
2021,08,15,02,56,14.20
2021,08,15,02,57,14.20
2021,08,15,02,58,14.20
2021,08,15,02,59,14.20
2021,08,15,03,00,14.20
2021,08,15,03,01,14.20
2021,08,15,03,02,14.20
2021,08,15,03,03,14.20
2021,08,15,03,04,14.20
2021,08,15,03,05,14.20
2021,08,15,03,06,14.20
2021,08,15,03,07,14.20
2021,08,15,03,08,14.10
2021,08,15,03,09,14.10
2021,08,15,03,10,14.10
2021,08,15,03,11,14.10
2021,08,15,03,12,14.10
2021,08,15,03,13,14.10
2021,08,15,03,14,14.10
2021,08,15,03,15,14.10
2021,08,15,03,16,14.20
2021,08,15,03,17,14.20
2021,08,15,03,18,14.30
2021,08,15,03,19,14.30
2021,08,15,03,20,14.30
2021,08,15,03,21,14.40
2021,08,15,03,22,14.40
2021,08,15,03,23,14.40
2021,08,15,03,24,14.40
2021,08,15,03,25,14.40
2021,08,15,03,26,14.50
2021,08,15,03,27,14.50
2021,08,15,03,28,14.50
2021,08,15,03,29,14.50
2021,08,15,03,30,14.50
2021,08,15,03,31,14.60
2021,08,15,03,32,14.60
2021,08,15,03,33,14.60
2021,08,15,03,34,14.60
2021,08,15,03,35,14.60
2021,08,15,03,36,14.60
2021,08,15,03,37,14.60
2021,08,15,03,38,14.70
2021,08,15,03,39,14.70
2021,08,15,03,40,14.80
2021,08,15,03,41,14.80
2021,08,15,03,42,14.90
2021,08,15,03,43,14.90
2021,08,15,03,44,15.00
2021,08,15,03,45,15.00
2021,08,15,03,46,15.10
2021,08,15,03,47,15.10
2021,08,15,03,48,15.10
2021,08,15,03,49,15.10
2021,08,15,03,50,15.10
2021,08,15,03,51,15.10
2021,08,15,03,52,15.20
2021,08,15,03,53,15.20
2021,08,15,03,54,15.20
2021,08,15,03,55,15.20
2021,08,15,03,56,15.20
2021,08,15,03,57,15.20
2021,08,15,03,58,15.30
2021,08,15,03,59,15.30
2021,08,15,04,00,15.30
2021,08,15,04,01,15.30
2021,08,15,04,02,15.30
2021,08,15,04,03,15.30
2021,08,15,04,04,15.30
2021,08,15,04,05,15.30
2021,08,15,04,06,15.40
2021,08,15,04,07,15.40
2021,08,15,04,08,15.40
2021,08,15,04,09,15.40
2021,08,15,04,10,15.40
2021,08,15,04,11,15.40
2021,08,15,04,12,15.40
2021,08,15,04,13,15.40
2021,08,15,04,14,15.40
2021,08,15,04,15,15.40
2021,08,15,04,16,15.40
2021,08,15,04,17,15.50
2021,08,15,04,18,15.50
2021,08,15,04,19,15.50
2021,08,15,04,20,15.50
2021,08,15,04,21,15.50
2021,08,15,04,22,15.50
2021,08,15,04,23,15.50
2021,08,15,04,24,15.50
2021,08,15,04,25,15.50
2021,08,15,04,26,15.50
2021,08,15,04,27,15.50
2021,08,15,04,28,15.50
2021,08,15,04,29,15.50
2021,08,15,04,30,15.50
2021,08,15,04,31,15.50
2021,08,15,04,32,15.50
2021,08,15,04,33,15.50
2021,08,15,04,34,15.50
2021,08,15,04,35,15.50
2021,08,15,04,36,15.50
2021,08,15,04,37,15.50
2021,08,15,04,38,15.40
2021,08,15,04,39,15.40
2021,08,15,04,40,15.40
2021,08,15,04,41,15.40
2021,08,15,04,42,15.40
2021,08,15,04,43,15.40
2021,08,15,04,44,15.40
2021,08,15,04,45,15.40
2021,08,15,04,46,15.40
2021,08,15,04,47,15.40
2021,08,15,04,48,15.40
2021,08,15,04,49,15.40
2021,08,15,04,50,15.40
2021,08,15,04,51,15.30
2021,08,15,04,52,15.30
2021,08,15,04,53,15.30
2021,08,15,04,54,15.30
2021,08,15,04,55,15.30
2021,08,15,04,56,15.30
2021,08,15,04,57,15.30
2021,08,15,04,58,15.30
2021,08,15,04,59,15.30
2021,08,15,05,00,15.30
2021,08,15,05,01,15.30
2021,08,15,05,02,15.30
2021,08,15,05,03,15.20
2021,08,15,05,04,15.20
2021,08,15,05,05,15.20
2021,08,15,05,06,15.20
2021,08,15,05,07,15.20
2021,08,15,05,08,15.20
2021,08,15,05,09,15.20
2021,08,15,05,10,15.20
2021,08,15,05,11,15.20
2021,08,15,05,12,15.10
2021,08,15,05,13,15.10
2021,08,15,05,14,15.10
2021,08,15,05,15,15.10
2021,08,15,05,16,15.10
2021,08,15,05,17,15.10
2021,08,15,05,18,15.10
2021,08,15,05,19,15.10
2021,08,15,05,20,15.10
2021,08,15,05,21,15.00
2021,08,15,05,22,15.00
2021,08,15,05,23,15.00
2021,08,15,05,24,15.00
2021,08,15,05,25,15.00
2021,08,15,05,26,15.00
2021,08,15,05,27,15.00
2021,08,15,05,28,14.90
2021,08,15,05,29,14.90
2021,08,15,05,30,14.90
2021,08,15,05,31,14.90
2021,08,15,05,32,14.90
2021,08,15,05,33,14.90
2021,08,15,05,34,14.90
2021,08,15,05,35,14.90
2021,08,15,05,36,14.80
2021,08,15,05,37,14.80
2021,08,15,05,38,14.80
2021,08,15,05,39,14.80
2021,08,15,05,40,14.80
2021,08,15,05,41,14.80
2021,08,15,05,42,14.80
2021,08,15,05,43,14.80
2021,08,15,05,44,14.80
2021,08,15,05,45,14.80
2021,08,15,05,46,14.70
2021,08,15,05,47,14.70
2021,08,15,05,48,14.70
2021,08,15,05,49,14.70
2021,08,15,05,50,14.70
2021,08,15,05,51,14.70
2021,08,15,05,52,14.70
2021,08,15,05,53,14.70
2021,08,15,05,54,14.70
2021,08,15,05,55,14.70
2021,08,15,05,56,14.70
2021,08,15,05,57,14.70
2021,08,15,05,58,14.70
2021,08,15,05,59,14.70
2021,08,15,06,00,14.70
2021,08,15,06,01,14.70
2021,08,15,06,02,14.70
2021,08,15,06,03,14.70
2021,08,15,06,04,14.70
2021,08,15,06,05,14.70
2021,08,15,06,06,14.80
2021,08,15,06,07,14.80
2021,08,15,06,08,14.80
2021,08,15,06,09,14.80
2021,08,15,06,10,14.80
2021,08,15,06,11,14.90
2021,08,15,06,12,14.90
2021,08,15,06,13,14.90
2021,08,15,06,14,14.90
2021,08,15,06,15,14.90
2021,08,15,06,16,14.90
2021,08,15,06,17,14.90
2021,08,15,06,18,14.90
2021,08,15,06,19,14.90
2021,08,15,06,20,14.90
2021,08,15,06,21,14.90
2021,08,15,06,22,14.90
2021,08,15,06,23,14.90
2021,08,15,06,24,14.90
2021,08,15,06,25,14.90
2021,08,15,06,26,15.00
2021,08,15,06,27,15.00
2021,08,15,06,28,15.00
2021,08,15,06,29,15.00
2021,08,15,06,30,15.00
2021,08,15,06,31,15.00
2021,08,15,06,32,15.00
2021,08,15,06,33,15.10
2021,08,15,06,34,15.10
2021,08,15,06,35,15.10
2021,08,15,06,36,15.10
2021,08,15,06,37,15.10
2021,08,15,06,38,15.10
2021,08,15,06,39,15.10
2021,08,15,06,40,15.10
2021,08,15,06,41,15.10
2021,08,15,06,42,15.10
2021,08,15,06,43,15.10
2021,08,15,06,44,15.10
2021,08,15,06,45,15.10
2021,08,15,06,46,15.10
2021,08,15,06,47,15.10
2021,08,15,06,48,15.20
2021,08,15,06,49,15.20
2021,08,15,06,50,15.20
2021,08,15,06,51,15.20
2021,08,15,06,52,15.30
2021,08,15,06,53,15.30
2021,08,15,06,54,15.30
2021,08,15,06,55,15.30
2021,08,15,06,56,15.40
2021,08,15,06,57,15.40
2021,08,15,06,58,15.40
2021,08,15,06,59,15.40
2021,08,15,07,00,15.40
2021,08,15,07,01,15.40
2021,08,15,07,02,15.40
2021,08,15,07,03,15.50
2021,08,15,07,04,15.50
2021,08,15,07,05,15.50
2021,08,15,07,06,15.50
2021,08,15,07,07,15.60
2021,08,15,07,08,15.60
2021,08,15,07,09,15.60
2021,08,15,07,10,15.60
2021,08,15,07,11,15.60
2021,08,15,07,12,15.70
2021,08,15,07,13,15.70
2021,08,15,07,14,15.70
2021,08,15,07,15,15.70
2021,08,15,07,16,15.70
2021,08,15,07,17,15.70
2021,08,15,07,18,15.70
2021,08,15,07,19,15.70
2021,08,15,07,20,15.70
2021,08,15,07,21,15.70
2021,08,15,07,22,15.70
2021,08,15,07,23,15.70
2021,08,15,07,24,15.70
2021,08,15,07,25,15.80
2021,08,15,07,26,15.80
2021,08,15,07,27,15.80
2021,08,15,07,28,15.80
2021,08,15,07,29,15.80
2021,08,15,07,30,15.90
2021,08,15,07,31,15.90
2021,08,15,07,32,15.90
2021,08,15,07,33,15.90
2021,08,15,07,34,15.90
2021,08,15,07,35,16.00
2021,08,15,07,36,16.00
2021,08,15,07,37,16.00
2021,08,15,07,38,16.10
2021,08,15,07,39,16.10
2021,08,15,07,40,16.10
2021,08,15,07,41,16.20
2021,08,15,07,42,16.20
2021,08,15,07,43,16.20
2021,08,15,07,44,16.20
2021,08,15,07,45,16.20
2021,08,15,07,46,16.30
2021,08,15,07,47,16.30
2021,08,15,07,48,16.30
2021,08,15,07,49,16.30
2021,08,15,07,50,16.30
2021,08,15,07,51,16.40
2021,08,15,07,52,16.40
2021,08,15,07,53,16.40
2021,08,15,07,54,16.40
2021,08,15,07,55,16.40
2021,08,15,07,56,16.50
2021,08,15,07,57,16.50
2021,08,15,07,58,16.50
2021,08,15,07,59,16.60
2021,08,15,08,00,16.60
2021,08,15,08,01,16.60
2021,08,15,08,02,16.60
2021,08,15,08,03,16.60
2021,08,15,08,04,16.60
2021,08,15,08,05,16.60
2021,08,15,08,06,16.60
2021,08,15,08,07,16.50
2021,08,15,08,08,16.50
2021,08,15,08,09,16.50
2021,08,15,08,10,16.60
2021,08,15,08,11,16.50
2021,08,15,08,12,16.50
2021,08,15,08,13,16.50
2021,08,15,08,14,16.50
2021,08,15,08,15,16.50
2021,08,15,08,16,16.60
2021,08,15,08,17,16.60
2021,08,15,08,18,16.60
2021,08,15,08,19,16.60
2021,08,15,08,20,16.60
2021,08,15,08,21,16.60
2021,08,15,08,22,16.60
2021,08,15,08,23,16.60
2021,08,15,08,24,16.60
2021,08,15,08,25,16.60
2021,08,15,08,26,16.60
2021,08,15,08,27,16.60
2021,08,15,08,28,16.60
2021,08,15,08,29,16.60
2021,08,15,08,30,16.60
2021,08,15,08,31,16.70
2021,08,15,08,32,16.70
2021,08,15,08,33,16.70
2021,08,15,08,34,16.80
2021,08,15,08,35,16.80
2021,08,15,08,36,16.90
2021,08,15,08,37,16.90
2021,08,15,08,38,16.90
2021,08,15,08,39,16.90
2021,08,15,08,40,17.00
2021,08,15,08,41,17.00
2021,08,15,08,42,17.10
2021,08,15,08,43,17.10
2021,08,15,08,44,17.20
2021,08,15,08,45,17.20
2021,08,15,08,46,17.30
2021,08,15,08,47,17.30
2021,08,15,08,48,17.30
2021,08,15,08,49,17.40
2021,08,15,08,50,17.40
2021,08,15,08,51,17.50
2021,08,15,08,52,17.50
2021,08,15,08,53,17.60
2021,08,15,08,54,17.60
2021,08,15,08,55,17.60
2021,08,15,08,56,17.60
2021,08,15,08,57,17.70
2021,08,15,08,58,17.70
2021,08,15,08,59,17.80
2021,08,15,09,00,17.90
2021,08,15,09,01,18.00
2021,08,15,09,02,18.10
2021,08,15,09,03,18.10
2021,08,15,09,04,18.20
2021,08,15,09,05,18.30
2021,08,15,09,06,18.30
2021,08,15,09,07,18.40
2021,08,15,09,08,18.40
2021,08,15,09,09,18.40
2021,08,15,09,10,18.20
2021,08,15,09,11,17.80
2021,08,15,09,12,17.50
2021,08,15,09,13,17.20
2021,08,15,09,14,17.00
2021,08,15,09,15,16.80
2021,08,15,09,16,16.70
2021,08,15,09,17,16.60
2021,08,15,09,18,16.60
2021,08,15,09,19,16.50
2021,08,15,09,20,16.40
2021,08,15,09,21,16.40
2021,08,15,09,22,16.40
2021,08,15,09,23,16.30
2021,08,15,09,24,16.30
2021,08,15,09,25,16.20
2021,08,15,09,26,16.20
2021,08,15,09,27,16.30
2021,08,15,09,28,16.30
2021,08,15,09,29,16.30
2021,08,15,09,30,16.40
2021,08,15,09,31,16.40
2021,08,15,09,32,16.50
2021,08,15,09,33,16.60
2021,08,15,09,34,16.70
2021,08,15,09,35,16.80
2021,08,15,09,36,16.90
2021,08,15,09,37,16.90
2021,08,15,09,38,16.90
2021,08,15,09,39,16.90
2021,08,15,09,40,16.90
2021,08,15,09,41,16.90
2021,08,15,09,42,16.90
2021,08,15,09,43,16.80
2021,08,15,09,44,16.80
2021,08,15,09,45,16.70
2021,08,15,09,46,16.70
2021,08,15,09,47,16.70
2021,08,15,09,48,16.70
2021,08,15,09,49,16.60
2021,08,15,09,50,16.60
2021,08,15,09,51,16.60
2021,08,15,09,52,16.70
2021,08,15,09,53,16.70
2021,08,15,09,54,16.70
2021,08,15,09,55,16.80
2021,08,15,09,56,16.80
2021,08,15,09,57,16.90
2021,08,15,09,58,17.00
2021,08,15,09,59,17.00
2021,08,15,10,00,17.10
2021,08,15,10,01,17.10
2021,08,15,10,02,17.20
2021,08,15,10,03,17.20
2021,08,15,10,04,17.20
2021,08,15,10,05,17.20
2021,08,15,10,06,17.20
2021,08,15,10,07,17.20
2021,08,15,10,08,17.20
2021,08,15,10,09,17.20
2021,08,15,10,10,17.20
2021,08,15,10,11,17.20
2021,08,15,10,12,17.20
2021,08,15,10,13,17.10
2021,08,15,10,14,17.10
2021,08,15,10,15,17.00
2021,08,15,10,16,16.90
2021,08,15,10,17,16.80
2021,08,15,10,18,16.80
2021,08,15,10,19,16.70
2021,08,15,10,20,16.60
2021,08,15,10,21,16.50
2021,08,15,10,22,16.40
2021,08,15,10,23,16.40
2021,08,15,10,24,16.40
2021,08,15,10,25,16.40
2021,08,15,10,26,16.40
2021,08,15,10,27,16.50
2021,08,15,10,28,16.50
2021,08,15,10,29,16.60
2021,08,15,10,30,16.70
2021,08,15,10,31,16.70
2021,08,15,10,32,16.70
2021,08,15,10,33,16.70
2021,08,15,10,34,16.60
2021,08,15,10,35,16.60
2021,08,15,10,36,16.50
2021,08,15,10,37,16.40
2021,08,15,10,38,16.30
2021,08,15,10,39,16.20
2021,08,15,10,40,16.10
2021,08,15,10,41,16.00
2021,08,15,10,42,15.90
2021,08,15,10,43,15.90
2021,08,15,10,44,15.80
2021,08,15,10,45,15.80
2021,08,15,10,46,15.80
2021,08,15,10,47,15.80
2021,08,15,10,48,15.80
2021,08,15,10,49,15.80
2021,08,15,10,50,15.80
2021,08,15,10,51,15.90
2021,08,15,10,52,16.00
2021,08,15,10,53,16.10
2021,08,15,10,54,16.20
2021,08,15,10,55,16.20
2021,08,15,10,56,16.30
2021,08,15,10,57,16.40
2021,08,15,10,58,16.50
2021,08,15,10,59,16.60
2021,08,15,11,00,16.70
2021,08,15,11,01,16.80
2021,08,15,11,02,16.80
2021,08,15,11,03,16.90
2021,08,15,11,04,16.90
2021,08,15,11,05,16.80
2021,08,15,11,06,16.80
2021,08,15,11,07,16.80
2021,08,15,11,08,16.80
2021,08,15,11,09,16.90
2021,08,15,11,10,16.80
2021,08,15,11,11,16.80
2021,08,15,11,12,16.70
2021,08,15,11,13,16.60
2021,08,15,11,14,16.50
2021,08,15,11,15,16.40
2021,08,15,11,16,16.40
2021,08,15,11,17,16.30
2021,08,15,11,18,16.30
2021,08,15,11,19,16.30
2021,08,15,11,20,16.30
2021,08,15,11,21,16.30
2021,08,15,11,22,16.30
2021,08,15,11,23,16.30
2021,08,15,11,24,16.40
2021,08,15,11,25,16.40
2021,08,15,11,26,16.40
2021,08,15,11,27,16.50
2021,08,15,11,28,16.50
2021,08,15,11,29,16.60
2021,08,15,11,30,16.70
2021,08,15,11,31,16.70
2021,08,15,11,32,16.80
2021,08,15,11,33,16.90
2021,08,15,11,34,17.00
2021,08,15,11,35,17.10
2021,08,15,11,36,17.10
2021,08,15,11,37,17.10
2021,08,15,11,38,17.10
2021,08,15,11,39,17.00
2021,08,15,11,40,17.00
2021,08,15,11,41,17.00
2021,08,15,11,42,17.10
2021,08,15,11,43,17.10
2021,08,15,11,44,17.00
2021,08,15,11,45,17.00
2021,08,15,11,46,16.90
2021,08,15,11,47,16.80
2021,08,15,11,48,16.70
2021,08,15,11,49,16.70
2021,08,15,11,50,16.70
2021,08,15,11,51,16.60
2021,08,15,11,52,16.50
2021,08,15,11,53,16.40
2021,08,15,11,54,16.30
2021,08,15,11,55,16.30
2021,08,15,11,56,16.20
2021,08,15,11,57,16.20
2021,08,15,11,58,16.30
2021,08,15,11,59,16.30
2021,08,15,12,00,16.30
2021,08,15,12,01,16.40
2021,08,15,12,02,16.40
2021,08,15,12,03,16.40
2021,08,15,12,04,16.40
2021,08,15,12,05,16.50
2021,08,15,12,06,16.50
2021,08,15,12,07,16.60
2021,08,15,12,08,16.60
2021,08,15,12,09,16.60
2021,08,15,12,10,16.70
2021,08,15,12,11,16.80
2021,08,15,12,12,16.80
2021,08,15,12,13,16.90
2021,08,15,12,14,16.90
2021,08,15,12,15,16.90
2021,08,15,12,16,16.90
2021,08,15,12,17,16.80
2021,08,15,12,18,16.80
2021,08,15,12,19,16.70
2021,08,15,12,20,16.70
2021,08,15,12,21,16.70
2021,08,15,12,22,16.70
2021,08,15,12,23,16.70
2021,08,15,12,24,16.70
2021,08,15,12,25,16.70
2021,08,15,12,26,16.70
2021,08,15,12,27,16.70
2021,08,15,12,28,16.60
2021,08,15,12,29,16.60
2021,08,15,12,30,16.60
2021,08,15,12,31,16.60
2021,08,15,12,32,16.50
2021,08,15,12,33,16.50
2021,08,15,12,34,16.50
2021,08,15,12,35,16.50
2021,08,15,12,36,16.60
2021,08,15,12,37,16.60
2021,08,15,12,38,16.70
2021,08,15,12,39,16.70
2021,08,15,12,40,16.80
2021,08,15,12,41,16.80
2021,08,15,12,42,16.90
2021,08,15,12,43,17.00
2021,08,15,12,44,17.00
2021,08,15,12,45,17.10
2021,08,15,12,46,17.10
2021,08,15,12,47,17.20
2021,08,15,12,48,17.30
2021,08,15,12,49,17.30
2021,08,15,12,50,17.40
2021,08,15,12,51,17.40
2021,08,15,12,52,17.40
2021,08,15,12,53,17.50
2021,08,15,12,54,17.50
2021,08,15,12,55,17.60
2021,08,15,12,56,17.70
2021,08,15,12,57,17.70
2021,08,15,12,58,17.70
2021,08,15,12,59,17.80
2021,08,15,13,00,17.80
2021,08,15,13,01,17.80
2021,08,15,13,02,17.80
2021,08,15,13,03,17.70
2021,08,15,13,04,17.70
2021,08,15,13,05,17.70
2021,08,15,13,06,17.80
2021,08,15,13,07,17.80
2021,08,15,13,08,17.80
2021,08,15,13,09,17.80
2021,08,15,13,10,17.80
2021,08,15,13,11,17.80
2021,08,15,13,12,17.80
2021,08,15,13,13,17.80
2021,08,15,13,14,17.70
2021,08,15,13,15,17.70
2021,08,15,13,16,17.70
2021,08,15,13,17,17.70
2021,08,15,13,18,17.80
2021,08,15,13,19,17.80
2021,08,15,13,20,17.70
2021,08,15,13,21,17.70
2021,08,15,13,22,17.60
2021,08,15,13,23,17.60
2021,08,15,13,24,17.50
2021,08,15,13,25,17.60
2021,08,15,13,26,17.60
2021,08,15,13,27,17.60
2021,08,15,13,28,17.60
2021,08,15,13,29,17.50
2021,08,15,13,30,17.40
2021,08,15,13,31,17.30
2021,08,15,13,32,17.20
2021,08,15,13,33,17.10
2021,08,15,13,34,17.10
2021,08,15,13,35,17.10
2021,08,15,13,36,17.00
2021,08,15,13,37,17.10
2021,08,15,13,38,17.10
2021,08,15,13,39,17.20
2021,08,15,13,40,17.30
2021,08,15,13,41,17.40
2021,08,15,13,42,17.40
2021,08,15,13,43,17.50
2021,08,15,13,44,17.60
2021,08,15,13,45,17.70
2021,08,15,13,46,17.80
2021,08,15,13,47,17.80
2021,08,15,13,48,17.80
2021,08,15,13,49,17.80
2021,08,15,13,50,17.80
2021,08,15,13,51,17.80
2021,08,15,13,52,17.90
2021,08,15,13,53,17.90
2021,08,15,13,54,17.90
2021,08,15,13,55,17.90
2021,08,15,13,56,17.90
2021,08,15,13,57,17.80
2021,08,15,13,58,17.80
2021,08,15,13,59,17.70
2021,08,15,14,00,17.70
2021,08,15,14,01,17.70
2021,08,15,14,02,17.70
2021,08,15,14,03,17.70
2021,08,15,14,04,17.70
2021,08,15,14,05,17.60
2021,08,15,14,06,17.60
2021,08,15,14,07,17.60
2021,08,15,14,08,17.60
2021,08,15,14,09,17.50
2021,08,15,14,10,17.50
2021,08,15,14,11,17.50
2021,08,15,14,12,17.50
2021,08,15,14,13,17.50
2021,08,15,14,14,17.50
2021,08,15,14,15,17.50
2021,08,15,14,16,17.40
2021,08,15,14,17,17.50
2021,08,15,14,18,17.40
2021,08,15,14,19,17.40
2021,08,15,14,20,17.40
2021,08,15,14,21,17.40
2021,08,15,14,22,17.40
2021,08,15,14,23,17.40
2021,08,15,14,24,17.40
2021,08,15,14,25,17.40
2021,08,15,14,26,17.40
2021,08,15,14,27,17.30
2021,08,15,14,28,17.30
2021,08,15,14,29,17.20
2021,08,15,14,30,17.20
2021,08,15,14,31,17.20
2021,08,15,14,32,17.10
2021,08,15,14,33,17.10
2021,08,15,14,34,17.10
2021,08,15,14,35,17.10
2021,08,15,14,36,17.10
2021,08,15,14,37,17.10
2021,08,15,14,38,17.10
2021,08,15,14,39,17.00
2021,08,15,14,40,17.00
2021,08,15,14,41,16.90
2021,08,15,14,42,16.90
2021,08,15,14,43,16.90
2021,08,15,14,44,16.90
2021,08,15,14,45,16.90
2021,08,15,14,46,16.90
2021,08,15,14,47,17.00
2021,08,15,14,48,16.90
2021,08,15,14,49,16.90
2021,08,15,14,50,17.00
2021,08,15,14,51,17.00
2021,08,15,14,52,17.00
2021,08,15,14,53,17.00
2021,08,15,14,54,17.00
2021,08,15,14,55,17.10
2021,08,15,14,56,17.10
2021,08,15,14,57,17.00
2021,08,15,14,58,17.00
2021,08,15,14,59,16.90
2021,08,15,15,00,16.80
2021,08,15,15,01,16.70
2021,08,15,15,02,16.70
2021,08,15,15,03,16.60
2021,08,15,15,04,16.40
2021,08,15,15,05,16.20
2021,08,15,15,06,16.00
2021,08,15,15,07,15.90
2021,08,15,15,08,15.80
2021,08,15,15,09,15.70
2021,08,15,15,10,15.60
2021,08,15,15,11,15.40
2021,08,15,15,12,15.30
2021,08,15,15,13,15.10
2021,08,15,15,14,15.00
2021,08,15,15,15,15.00
2021,08,15,15,16,15.00
2021,08,15,15,17,14.80
2021,08,15,15,18,14.70
2021,08,15,15,19,14.60
2021,08,15,15,20,14.50
2021,08,15,15,21,14.50
2021,08,15,15,22,14.40
2021,08,15,15,23,14.40
2021,08,15,15,24,14.40
2021,08,15,15,25,14.40
2021,08,15,15,26,14.40
2021,08,15,15,27,14.50
2021,08,15,15,28,14.60
2021,08,15,15,29,14.60
2021,08,15,15,30,14.60
2021,08,15,15,31,14.60
2021,08,15,15,32,14.50
2021,08,15,15,33,14.50
2021,08,15,15,34,14.50
2021,08,15,15,35,14.60
2021,08,15,15,36,14.70
2021,08,15,15,37,14.80
2021,08,15,15,38,14.80
2021,08,15,15,39,14.90
2021,08,15,15,40,15.00
2021,08,15,15,41,15.10
2021,08,15,15,42,15.10
2021,08,15,15,43,15.20
2021,08,15,15,44,15.30
2021,08,15,15,45,15.40
2021,08,15,15,46,15.50
2021,08,15,15,47,15.50
2021,08,15,15,48,15.60
2021,08,15,15,49,15.60
2021,08,15,15,50,15.70
2021,08,15,15,51,15.80
2021,08,15,15,52,15.80
2021,08,15,15,53,15.90
2021,08,15,15,54,16.00
2021,08,15,15,55,16.00
2021,08,15,15,56,16.10
2021,08,15,15,57,16.20
2021,08,15,15,58,16.20
2021,08,15,15,59,16.20
2021,08,15,16,00,16.20
2021,08,15,16,01,16.10
2021,08,15,16,02,16.10
2021,08,15,16,03,16.00
2021,08,15,16,04,15.90
2021,08,15,16,05,15.90
2021,08,15,16,06,15.80
2021,08,15,16,07,15.80
2021,08,15,16,08,15.70
2021,08,15,16,09,15.70
2021,08,15,16,10,15.70
2021,08,15,16,11,15.70
2021,08,15,16,12,15.70
2021,08,15,16,13,15.80
2021,08,15,16,14,15.80
2021,08,15,16,15,15.80
2021,08,15,16,16,15.80
2021,08,15,16,17,15.80
2021,08,15,16,18,15.90
2021,08,15,16,19,15.90
2021,08,15,16,20,16.00
2021,08,15,16,21,16.00
2021,08,15,16,22,16.10
2021,08,15,16,23,16.10
2021,08,15,16,24,16.20
2021,08,15,16,25,16.30
2021,08,15,16,26,16.40
2021,08,15,16,27,16.50
2021,08,15,16,28,16.60
2021,08,15,16,29,16.70
2021,08,15,16,30,16.80
2021,08,15,16,31,16.90
2021,08,15,16,32,17.00
2021,08,15,16,33,17.10
2021,08,15,16,34,17.20
2021,08,15,16,35,17.40
2021,08,15,16,36,17.50
2021,08,15,16,37,17.70
2021,08,15,16,38,17.80
2021,08,15,16,39,17.80
2021,08,15,16,40,17.90
2021,08,15,16,41,18.10
2021,08,15,16,42,18.20
2021,08,15,16,43,18.30
2021,08,15,16,44,18.40
2021,08,15,16,45,18.60
2021,08,15,16,46,18.70
2021,08,15,16,47,18.80
2021,08,15,16,48,18.90
2021,08,15,16,49,19.00
2021,08,15,16,50,19.20
2021,08,15,16,51,19.30
2021,08,15,16,52,19.30
2021,08,15,16,53,19.40
2021,08,15,16,54,19.50
2021,08,15,16,55,19.50
2021,08,15,16,56,19.50
2021,08,15,16,57,19.50
2021,08,15,16,58,19.50
2021,08,15,16,59,19.50
2021,08,15,17,00,19.40
2021,08,15,17,01,19.40
2021,08,15,17,02,19.40
2021,08,15,17,03,19.40
2021,08,15,17,04,19.40
2021,08,15,17,05,19.30
2021,08,15,17,06,19.30
2021,08,15,17,07,19.30
2021,08,15,17,08,19.30
2021,08,15,17,09,19.30
2021,08,15,17,10,19.30
2021,08,15,17,11,19.30
2021,08,15,17,12,19.30
2021,08,15,17,13,19.30
2021,08,15,17,14,19.30
2021,08,15,17,15,19.40
2021,08,15,17,16,19.40
2021,08,15,17,17,19.40
2021,08,15,17,18,19.40
2021,08,15,17,19,19.40